sat.trackr.live / text

‹ back to catalog

ONEWEB-0531

NORAD 54146 · 2022-138AK

PAYLOAD ACTIVE UNKNOWN

§ Identity

Operator
Country
UK
Launch date
2022-10-22
Launch site
SRILR
Launch vehicle
Mass (kg)
RCS (m²)

Purposes: comms

External: N2YO · Heavens-Above · Gunter

§ Orbital elements

Epoch: 2026-09-19T18:39:36.307584Z

Period
109.03 min
Inclination
87.9142°
Eccentricity
0.0001956
Mean motion
13.20772835 rev/d
Perigee alt
1,180.3 km
Apogee alt
1,183.2 km
Semi-major
7,559.9 km
B*
-1.2712e-5
RAAN
255.5646°
Arg perigee
105.2593°
Mean anomaly
254.8757°
Rev number
19,179

§ Raw data

ONEWEB-05311 54146U 22138AK  26262.77750356  .00000008  00000+0 -12712-4 0  99992 54146  87.9142 255.5646 0001956 105.2593 254.8757 13.20772835191795

JSON: /api/v1/satellites/54146 · /tle

For live sub-satellite position, see the globe view (requires WebGL).

§ Visibility from observer

Set your observer location to see the next 7 days of passes ≥ 10°. The values pass through the URL so the page stays shareable.

No JS? Fill the form by hand. The geolocation button needs JavaScript.